Caro, MI

11:06 AM EST on December 15, 2017 (GMT -0500)
Caro

Weather History for KCFS - September, 2012

Change the Weather History Date:

Sunday, September 30, 2012

  Actual Average (KMBS) Record (KMBS)
Temperature  
Mean Temperature 50 °F -  
Max Temperature 61 °F 64 °F 86 °F (2002)
Min Temperature 39 °F 41 °F 34 °F (2003)
Degree Days  
Heating Degree Days 15    
Moisture  
Dew Point 44 °F    
Average Humidity 83    
Maximum Humidity 100    
Minimum Humidity 49    
Precipitation  
Precipitation 0.00 in - - ()
Sea Level Pressure  
Sea Level Pressure 29.96 in    
Wind  
Wind Speed 3 mph (NNE)    
Max Wind Speed 14 mph    
Max Gust Speed 18 mph    
Visibility 9 miles    
Events Fog    
Averages and records for this station are not official NWS values.
T = Trace of Precipitation, MM = Missing Value Source: NWS Daily Summary

Daily Weather History Graph

Daily Weather History Graph

Search for Another Location

Airport or City:

Trip Planner

Search our weather history database for the weather conditions in past years. The results will help you decide how hot, cold, wet, or windy it might be!

Date:

Astronomy

Sep. 30, 2012 Rise Set
Actual Time 7:30 AM EDT 7:15 PM EDT
Civil Twilight 7:02 AM EDT 7:44 PM EDT
Nautical Twilight 6:28 AM EDT 8:17 PM EDT
Astronomical Twilight 5:55 AM EDT 8:50 PM EDT
Moon 7:15 PM EDT (9/30) 8:02 AM EDT (9/30)
Length of Visible Light 12h 42m
Length of Day
11h 45m
Full, 100% of the Moon is Illuminated
Sep 30
Full
Oct 8
Last Quarter
Oct 15
New
Oct 21
First Quarter
Oct 29
Full

Hourly Weather History & Observations

Time (EDT) Temp. Windchill Dew Point Humidity Pressure Visibility Wind Dir Wind Speed Gust Speed Precip Events Conditions
12:15 AM 44.8 °F - 43.7 °F 96% 29.97 in 10.0 mi Calm Calm - N/A   Clear
12:35 AM 44.6 °F - 43.7 °F 97% 29.96 in 10.0 mi Calm Calm - N/A   Clear
12:54 AM 42.1 °F - 41.2 °F 97% 29.96 in 1.0 mi Calm Calm - N/A   Mist
1:15 AM 41.4 °F - 41.0 °F 99% 29.96 in 0.5 mi Calm Calm - N/A   Unknown
1:34 AM 40.3 °F - 40.1 °F 99% 29.96 in 2.5 mi Calm Calm - N/A   Clear
1:55 AM 40.6 °F - 40.5 °F 99% 29.96 in 1.5 mi Calm Calm - N/A   Mist
2:15 AM 39.6 °F - 39.4 °F 99% 29.96 in 7.0 mi Calm Calm - N/A   Scattered Clouds
2:34 AM 40.1 °F - 40.1 °F 100% 29.96 in 10.0 mi Calm Calm - N/A   Scattered Clouds
2:55 AM 40.5 °F - 40.3 °F 99% 29.95 in 5.0 mi Calm Calm - N/A   Clear
3:15 AM 39.2 °F - 39.2 °F 100% 29.94 in 5.0 mi Calm Calm - N/A   Clear
3:35 AM 39.2 °F 35.9 °F 39.2 °F 100% 29.94 in 7.0 mi North 4.6 mph - N/A   Clear
3:55 AM 45.7 °F - 45.7 °F 100% 29.95 in 7.0 mi Calm Calm - N/A   Mostly Cloudy
4:14 AM 47.7 °F - 47.7 °F 100% 29.95 in 10.0 mi Calm Calm - N/A   Overcast
4:35 AM 48.4 °F - 48.4 °F 100% 29.95 in 10.0 mi North 3.5 mph - N/A   Overcast
4:55 AM 50.0 °F - 49.6 °F 99% 29.95 in 10.0 mi NE 3.5 mph - N/A   Overcast
5:14 AM 50.2 °F - 48.9 °F 95% 29.95 in 10.0 mi ENE 3.5 mph - N/A   Overcast
5:35 AM 49.5 °F - 48.2 °F 95% 29.95 in 10.0 mi Calm Calm - N/A   Overcast
5:54 AM 46.6 °F - 45.5 °F 96% 29.96 in 10.0 mi Calm Calm - N/A   Scattered Clouds
6:15 AM 43.0 °F 40.3 °F 42.4 °F 98% 29.95 in 10.0 mi North 4.6 mph - N/A   Clear
6:35 AM 44.4 °F 40.5 °F 44.1 °F 99% 29.95 in 10.0 mi North 6.9 mph - N/A   Clear
6:54 AM 44.6 °F 41.4 °F 44.6 °F 100% 29.96 in 10.0 mi North 5.8 mph - N/A   Clear
7:15 AM 43.7 °F 42.1 °F 43.7 °F 100% 29.96 in 10.0 mi North 3.5 mph - N/A   Clear
7:35 AM 43.0 °F 41.3 °F 43.0 °F 100% 29.96 in 10.0 mi North 3.5 mph - N/A   Clear
7:54 AM 43.7 °F 42.1 °F 43.7 °F 100% 29.96 in 10.0 mi North 3.5 mph - N/A   Clear
8:15 AM 45.0 °F 43.5 °F 45.0 °F 100% 29.96 in 10.0 mi North 3.5 mph - N/A   Clear
8:35 AM 48.0 °F - 48.0 °F 100% 29.97 in 10.0 mi North 5.8 mph - N/A   Clear
8:54 AM 49.6 °F - 48.4 °F 95% 29.97 in 10.0 mi North 5.8 mph - N/A   Clear
9:15 AM 52.0 °F - 48.7 °F 89% 29.97 in 10.0 mi NNE 4.6 mph - N/A   Clear
9:34 AM 54.1 °F - 49.5 °F 84% 29.97 in 10.0 mi NNE 5.8 mph - N/A   Clear
9:55 AM 55.4 °F - 48.4 °F 77% 29.97 in 10.0 mi NNE 8.1 mph - N/A   Clear
10:15 AM 56.5 °F - 47.5 °F 72% 29.97 in 10.0 mi NNE 9.2 mph - N/A   Clear
10:34 AM 57.7 °F - 46.2 °F 65% 29.98 in 10.0 mi NNE 9.2 mph 18.4 mph N/A   Scattered Clouds
10:55 AM 59.2 °F - 45.1 °F 60% 29.98 in 10.0 mi NE 11.5 mph 18.4 mph N/A   Scattered Clouds
11:15 AM 59.7 °F - 44.6 °F 57% 29.98 in 10.0 mi NNE 10.4 mph 16.1 mph N/A   Scattered Clouds
11:35 AM 60.8 °F - 43.2 °F 52% 29.98 in 10.0 mi NE 8.1 mph 16.1 mph N/A   Scattered Clouds
11:55 AM 60.6 °F - 43.7 °F 54% 29.97 in 10.0 mi ENE 9.2 mph - N/A   Scattered Clouds
12:14 PM 59.7 °F - 46.0 °F 61% 29.97 in 10.0 mi North 10.4 mph - N/A   Mostly Cloudy
12:35 PM 60.4 °F - 46.0 °F 59% 29.97 in 10.0 mi NE 6.9 mph - N/A   Mostly Cloudy
12:55 PM 60.6 °F - 44.1 °F 54% 29.97 in 10.0 mi NE 6.9 mph 16.1 mph N/A   Overcast
1:15 PM 61.0 °F - 43.5 °F 53% 29.97 in 10.0 mi NNE 10.4 mph 16.1 mph N/A   Mostly Cloudy
1:35 PM 60.1 °F - 42.4 °F 52% 29.97 in 10.0 mi NE 6.9 mph - N/A   Overcast
1:54 PM 60.1 °F - 41.9 °F 51% 29.96 in 10.0 mi NE 3.5 mph - N/A   Overcast
2:15 PM 59.9 °F - 46.8 °F 62% 29.96 in 10.0 mi North 6.9 mph - N/A   Mostly Cloudy
2:35 PM 60.8 °F - 41.7 °F 49% 29.96 in 10.0 mi NNE 5.8 mph - N/A   Overcast
2:54 PM 60.6 °F - 45.9 °F 58% 29.95 in 10.0 mi North 9.2 mph - N/A   Overcast
3:15 PM 61.3 °F - 44.6 °F 54% 29.95 in 10.0 mi NE 8.1 mph - N/A   Mostly Cloudy
3:35 PM 61.7 °F - 45.3 °F 55% 29.95 in 10.0 mi North 5.8 mph - N/A   Overcast
4:15 PM 60.8 °F - 46.2 °F 59% 29.95 in 10.0 mi North 12.7 mph - N/A   Overcast
4:35 PM 59.5 °F - 47.3 °F 64% 29.95 in 10.0 mi North 10.4 mph 18.4 mph N/A   Overcast
4:54 PM 59.4 °F - 47.7 °F 65% 29.95 in 10.0 mi North 13.8 mph 18.4 mph N/A   Overcast
5:15 PM 59.9 °F - 46.6 °F 61% 29.95 in 10.0 mi NNE 10.4 mph - N/A   Overcast
5:35 PM 59.5 °F - 46.8 °F 63% 29.95 in 10.0 mi NNE 5.8 mph - N/A   Overcast
5:55 PM 59.9 °F - 46.9 °F 62% 29.95 in 10.0 mi NNE 9.2 mph - N/A   Overcast
6:15 PM 58.5 °F - 46.9 °F 66% 29.94 in 10.0 mi NNE 4.6 mph - N/A   Scattered Clouds
6:34 PM 57.6 °F - 46.9 °F 68% 29.95 in 10.0 mi NNE 3.5 mph - N/A   Clear
6:55 PM 56.5 °F - 46.8 °F 70% 29.95 in 10.0 mi NNE 4.6 mph - N/A   Clear
7:15 PM 54.9 °F - 47.3 °F 76% 29.95 in 10.0 mi NNE 3.5 mph - N/A   Clear
7:34 PM 52.5 °F - 47.3 °F 82% 29.96 in 5.0 mi Calm Calm - N/A   Haze
7:55 PM 47.1 °F - 44.4 °F 90% 29.96 in 7.0 mi Calm Calm - N/A   Clear
8:15 PM 46.0 °F - 44.2 °F 93% 29.96 in 10.0 mi Calm Calm - N/A   Clear
8:34 PM 46.2 °F - 45.1 °F 96% 29.97 in 10.0 mi Calm Calm - N/A   Clear
8:55 PM 43.2 °F - 42.3 °F 97% 29.97 in 10.0 mi Calm Calm - N/A   Clear
9:15 PM 43.5 °F - 43.0 °F 98% 29.97 in 10.0 mi Calm Calm - N/A   Clear
9:34 PM 42.4 °F - 42.1 °F 99% 29.97 in 10.0 mi Calm Calm - N/A   Clear
9:55 PM 41.2 °F - 40.8 °F 99% 29.97 in 10.0 mi Calm Calm - N/A   Clear
10:15 PM 40.3 °F - 39.9 °F 99% 29.97 in 0.5 mi Calm Calm - N/A Fog Fog
10:35 PM 41.4 °F - 41.4 °F 100% 29.96 in 10.0 mi Calm Calm - N/A   Clear
10:55 PM 39.4 °F - 39.2 °F 99% 29.97 in 0.8 mi Calm Calm - N/A   Mist
11:14 PM 39.9 °F - 39.9 °F 100% 29.97 in 0.5 mi Calm Calm - N/A Fog Fog
11:35 PM 39.6 °F - 39.6 °F 100% 29.97 in 1.8 mi Calm Calm - N/A   Mist